Location: Brantley
(31.5822°N, 86.2569°W)
Time: 05:55:13
(UTC+00:00)

Courier 1B Rocket - Pass Details

Date: 23 February 2026
Orbit: 920 x 1201 km, 28.2° (Epoch: 9 March)

Event Time Altitude Azimuth Distance (km) Brightness Sun altitude
Rises 02:31:47 0° 272° (W) 3,547 8.9 -37.6°
Reaches altitude 10° 02:34:25 10° 267° (W) 2,611 7.9 -38.2°
Enters shadow 02:37:33 29° 252° (WSW) 1,616 6.4 -38.8°
Maximum altitude 02:40:27 51° 193° (SSW) 1,167 - -39.4°
Drops below altitude 10° 02:46:44 10° 119° (ESE) 2,720 - -40.7°
Sets 02:49:32 0° 114° (ESE) 3,708 - -41.3°
